Year,Month,Day,Hour,Minute,Value (Times are PST for temperature in C)
2013,03,31,00,00,6.30
2013,03,31,00,01,6.30
2013,03,31,00,02,6.30
2013,03,31,00,03,6.30
2013,03,31,00,04,6.20
2013,03,31,00,05,6.10
2013,03,31,00,06,6.10
2013,03,31,00,07,6.00
2013,03,31,00,08,5.90
2013,03,31,00,09,5.90
2013,03,31,00,10,5.80
2013,03,31,00,11,5.80
2013,03,31,00,12,5.70
2013,03,31,00,13,5.70
2013,03,31,00,14,5.60
2013,03,31,00,15,5.60
2013,03,31,00,16,5.60
2013,03,31,00,17,5.50
2013,03,31,00,18,5.50
2013,03,31,00,19,5.40
2013,03,31,00,20,5.40
2013,03,31,00,21,5.30
2013,03,31,00,22,5.30
2013,03,31,00,23,5.30
2013,03,31,00,24,5.20
2013,03,31,00,25,5.20
2013,03,31,00,26,5.20
2013,03,31,00,27,5.20
2013,03,31,00,28,5.10
2013,03,31,00,29,5.10
2013,03,31,00,30,5.10
2013,03,31,00,31,5.10
2013,03,31,00,32,5.00
2013,03,31,00,33,5.00
2013,03,31,00,34,5.00
2013,03,31,00,35,4.90
2013,03,31,00,36,4.90
2013,03,31,00,37,4.90
2013,03,31,00,38,4.90
2013,03,31,00,39,4.90
2013,03,31,00,40,4.80
2013,03,31,00,41,4.80
2013,03,31,00,42,4.80
2013,03,31,00,43,4.80
2013,03,31,00,44,4.80
2013,03,31,00,45,4.80
2013,03,31,00,46,4.80
2013,03,31,00,47,4.70
2013,03,31,00,48,4.70
2013,03,31,00,49,4.70
2013,03,31,00,50,4.70
2013,03,31,00,51,4.70
2013,03,31,00,52,4.70
2013,03,31,00,53,4.70
2013,03,31,00,54,4.70
2013,03,31,00,55,4.70
2013,03,31,00,56,4.60
2013,03,31,00,57,4.60
2013,03,31,00,58,4.60
2013,03,31,00,59,4.60
2013,03,31,01,00,4.60
2013,03,31,01,01,4.60
2013,03,31,01,02,4.60
2013,03,31,01,03,4.50
2013,03,31,01,04,4.50
2013,03,31,01,05,4.50
2013,03,31,01,06,4.50
2013,03,31,01,07,4.50
2013,03,31,01,08,4.50
2013,03,31,01,09,4.50
2013,03,31,01,10,4.40
2013,03,31,01,11,4.40
2013,03,31,01,12,4.40
2013,03,31,01,13,4.40
2013,03,31,01,14,4.40
2013,03,31,01,15,4.40
2013,03,31,01,16,4.40
2013,03,31,01,17,4.40
2013,03,31,01,18,4.30
2013,03,31,01,19,4.30
2013,03,31,01,20,4.30
2013,03,31,01,21,4.30
2013,03,31,01,22,4.30
2013,03,31,01,23,4.30
2013,03,31,01,24,4.30
2013,03,31,01,25,4.30
2013,03,31,01,26,4.20
2013,03,31,01,27,4.20
2013,03,31,01,28,4.20
2013,03,31,01,29,4.20
2013,03,31,01,30,4.20
2013,03,31,01,31,4.20
2013,03,31,01,32,4.20
2013,03,31,01,33,4.20
2013,03,31,01,34,4.20
2013,03,31,01,35,4.20
2013,03,31,01,36,4.10
2013,03,31,01,37,4.10
2013,03,31,01,38,4.10
2013,03,31,01,39,4.10
2013,03,31,01,40,4.10
2013,03,31,01,41,4.10
2013,03,31,01,42,4.00
2013,03,31,01,43,4.00
2013,03,31,01,44,4.00
2013,03,31,01,45,4.00
2013,03,31,01,46,4.00
2013,03,31,01,47,4.00
2013,03,31,01,48,3.90
2013,03,31,01,49,3.90
2013,03,31,01,50,3.90
2013,03,31,01,51,3.90
2013,03,31,01,52,3.90
2013,03,31,01,53,3.90
2013,03,31,01,54,3.90
2013,03,31,01,55,3.90
2013,03,31,01,56,3.90
2013,03,31,01,57,3.80
2013,03,31,01,58,3.80
2013,03,31,01,59,3.80
2013,03,31,02,00,3.80
2013,03,31,02,01,3.80
2013,03,31,02,02,3.80
2013,03,31,02,03,3.80
2013,03,31,02,04,3.80
2013,03,31,02,05,3.80
2013,03,31,02,06,3.70
2013,03,31,02,07,3.70
2013,03,31,02,08,3.70
2013,03,31,02,09,3.70
2013,03,31,02,10,3.70
2013,03,31,02,11,3.70
2013,03,31,02,12,3.70
2013,03,31,02,13,3.70
2013,03,31,02,14,3.70
2013,03,31,02,15,3.70
2013,03,31,02,16,3.70
2013,03,31,02,17,3.70
2013,03,31,02,18,3.60
2013,03,31,02,19,3.60
2013,03,31,02,20,3.60
2013,03,31,02,21,3.60
2013,03,31,02,22,3.60
2013,03,31,02,23,3.60
2013,03,31,02,24,3.60
2013,03,31,02,25,3.60
2013,03,31,02,26,3.50
2013,03,31,02,27,3.50
2013,03,31,02,28,3.50
2013,03,31,02,29,3.50
2013,03,31,02,30,3.40
2013,03,31,02,31,3.40
2013,03,31,02,32,3.40
2013,03,31,02,33,3.40
2013,03,31,02,34,3.40
2013,03,31,02,35,3.40
2013,03,31,02,36,3.40
2013,03,31,02,37,3.40
2013,03,31,02,38,3.30
2013,03,31,02,39,3.30
2013,03,31,02,40,3.30
2013,03,31,02,41,3.30
2013,03,31,02,42,3.30
2013,03,31,02,43,3.30
2013,03,31,02,44,3.30
2013,03,31,02,45,3.30
2013,03,31,02,46,3.30
2013,03,31,02,47,3.30
2013,03,31,02,48,3.30
2013,03,31,02,49,3.30
2013,03,31,02,50,3.30
2013,03,31,02,51,3.20
2013,03,31,02,52,3.20
2013,03,31,02,53,3.20
2013,03,31,02,54,3.20
2013,03,31,02,55,3.20
2013,03,31,02,56,3.20
2013,03,31,02,57,3.20
2013,03,31,02,58,3.10
2013,03,31,02,59,3.10
2013,03,31,03,00,3.10
2013,03,31,03,01,3.10
2013,03,31,03,02,3.10
2013,03,31,03,03,3.10
2013,03,31,03,04,3.10
2013,03,31,03,05,3.00
2013,03,31,03,06,3.00
2013,03,31,03,07,3.00
2013,03,31,03,08,3.00
2013,03,31,03,09,3.00
2013,03,31,03,10,3.00
2013,03,31,03,11,3.00
2013,03,31,03,12,2.90
2013,03,31,03,13,2.90
2013,03,31,03,14,2.90
2013,03,31,03,15,2.90
2013,03,31,03,16,2.90
2013,03,31,03,17,2.90
2013,03,31,03,18,2.90
2013,03,31,03,19,2.90
2013,03,31,03,20,2.90
2013,03,31,03,21,2.80
2013,03,31,03,22,2.80
2013,03,31,03,23,2.80
2013,03,31,03,24,2.80
2013,03,31,03,25,2.80
2013,03,31,03,26,2.80
2013,03,31,03,27,2.80
2013,03,31,03,28,2.80
2013,03,31,03,29,2.80
2013,03,31,03,30,2.80
2013,03,31,03,31,2.80
2013,03,31,03,32,2.80
2013,03,31,03,33,2.70
2013,03,31,03,34,2.70
2013,03,31,03,35,2.70
2013,03,31,03,36,2.70
2013,03,31,03,37,2.70
2013,03,31,03,38,2.70
2013,03,31,03,39,2.70
2013,03,31,03,40,2.70
2013,03,31,03,41,2.70
2013,03,31,03,42,2.70
2013,03,31,03,43,2.60
2013,03,31,03,44,2.60
2013,03,31,03,45,2.60
2013,03,31,03,46,2.60
2013,03,31,03,47,2.60
2013,03,31,03,48,2.60
2013,03,31,03,49,2.60
2013,03,31,03,50,2.60
2013,03,31,03,51,2.60
2013,03,31,03,52,2.60
2013,03,31,03,53,2.60
2013,03,31,03,54,2.50
2013,03,31,03,55,2.50
2013,03,31,03,56,2.50
2013,03,31,03,57,2.50
2013,03,31,03,58,2.50
2013,03,31,03,59,2.50
2013,03,31,04,00,2.50
2013,03,31,04,01,2.40
2013,03,31,04,02,2.40
2013,03,31,04,03,2.40
2013,03,31,04,04,2.40
2013,03,31,04,05,2.40
2013,03,31,04,06,2.40
2013,03,31,04,07,2.30
2013,03,31,04,08,2.30
2013,03,31,04,09,2.30
2013,03,31,04,10,2.30
2013,03,31,04,11,2.30
2013,03,31,04,12,2.30
2013,03,31,04,13,2.30
2013,03,31,04,14,2.30
2013,03,31,04,15,2.20
2013,03,31,04,16,2.20
2013,03,31,04,17,2.20
2013,03,31,04,18,2.20
2013,03,31,04,19,2.20
2013,03,31,04,20,2.20
2013,03,31,04,21,2.20
2013,03,31,04,22,2.20
2013,03,31,04,23,2.20
2013,03,31,04,24,2.20
2013,03,31,04,25,2.20
2013,03,31,04,26,2.20
2013,03,31,04,27,2.20
2013,03,31,04,28,2.20
2013,03,31,04,29,2.20
2013,03,31,04,30,2.20
2013,03,31,04,31,2.20
2013,03,31,04,32,2.20
2013,03,31,04,33,2.10
2013,03,31,04,34,2.10
2013,03,31,04,35,2.10
2013,03,31,04,36,2.10
2013,03,31,04,37,2.10
2013,03,31,04,38,2.10
2013,03,31,04,39,2.10
2013,03,31,04,40,2.10
2013,03,31,04,41,2.10
2013,03,31,04,42,2.00
2013,03,31,04,43,2.00
2013,03,31,04,44,2.00
2013,03,31,04,45,2.00
2013,03,31,04,46,2.00
2013,03,31,04,47,2.00
2013,03,31,04,48,1.90
2013,03,31,04,49,1.90
2013,03,31,04,50,1.90
2013,03,31,04,51,1.90
2013,03,31,04,52,1.90
2013,03,31,04,53,1.80
2013,03,31,04,54,1.80
2013,03,31,04,55,1.80
2013,03,31,04,56,1.80
2013,03,31,04,57,1.80
2013,03,31,04,58,1.80
2013,03,31,04,59,1.80
2013,03,31,05,00,1.80
2013,03,31,05,01,1.80
2013,03,31,05,02,1.80
2013,03,31,05,03,1.80
2013,03,31,05,04,1.80
2013,03,31,05,05,1.80
2013,03,31,05,06,1.80
2013,03,31,05,07,1.80
2013,03,31,05,08,1.80
2013,03,31,05,09,1.80
2013,03,31,05,10,1.70
2013,03,31,05,11,1.70
2013,03,31,05,12,1.70
2013,03,31,05,13,1.70
2013,03,31,05,14,1.70
2013,03,31,05,15,1.70
2013,03,31,05,16,1.70
2013,03,31,05,17,1.70
2013,03,31,05,18,1.70
2013,03,31,05,19,1.70
2013,03,31,05,20,1.70
2013,03,31,05,21,1.70
2013,03,31,05,22,1.70
2013,03,31,05,23,1.70
2013,03,31,05,24,1.70
2013,03,31,05,25,1.70
2013,03,31,05,26,1.60
2013,03,31,05,27,1.60
2013,03,31,05,28,1.60
2013,03,31,05,29,1.60
2013,03,31,05,30,1.60
2013,03,31,05,31,1.60
2013,03,31,05,32,1.60
2013,03,31,05,33,1.60
2013,03,31,05,34,1.60
2013,03,31,05,35,1.60
2013,03,31,05,36,1.60
2013,03,31,05,37,1.50
2013,03,31,05,38,1.50
2013,03,31,05,39,1.50
2013,03,31,05,40,1.50
2013,03,31,05,41,1.50
2013,03,31,05,42,1.40
2013,03,31,05,43,1.40
2013,03,31,05,44,1.40
2013,03,31,05,45,1.40
2013,03,31,05,46,1.40
2013,03,31,05,47,1.40
2013,03,31,05,48,1.40
2013,03,31,05,49,1.40
2013,03,31,05,50,1.40
2013,03,31,05,51,1.40
2013,03,31,05,52,1.40
2013,03,31,05,53,1.40
2013,03,31,05,54,1.40
2013,03,31,05,55,1.40
2013,03,31,05,56,1.40
2013,03,31,05,57,1.40
2013,03,31,05,58,1.30
2013,03,31,05,59,1.30
2013,03,31,06,00,1.30
2013,03,31,06,01,1.30
2013,03,31,06,02,1.30
2013,03,31,06,03,1.30
2013,03,31,06,04,1.30
2013,03,31,06,05,1.30
2013,03,31,06,06,1.30
2013,03,31,06,07,1.30
2013,03,31,06,08,1.30
2013,03,31,06,09,1.30
2013,03,31,06,10,1.30
2013,03,31,06,11,1.30
2013,03,31,06,12,1.30
2013,03,31,06,13,1.30
2013,03,31,06,14,1.20
2013,03,31,06,15,1.20
2013,03,31,06,16,1.20
2013,03,31,06,17,1.20
2013,03,31,06,18,1.20
2013,03,31,06,19,1.20
2013,03,31,06,20,1.20
2013,03,31,06,21,1.20
2013,03,31,06,22,1.20
2013,03,31,06,23,1.20
2013,03,31,06,24,1.20
2013,03,31,06,25,1.10
2013,03,31,06,26,1.10
2013,03,31,06,27,1.10
2013,03,31,06,28,1.10
2013,03,31,06,29,1.10
2013,03,31,06,30,1.10
2013,03,31,06,31,1.10
2013,03,31,06,32,1.10
2013,03,31,06,33,1.10
2013,03,31,06,34,1.10
2013,03,31,06,35,1.10
2013,03,31,06,36,1.10
2013,03,31,06,37,1.10
2013,03,31,06,38,1.10
2013,03,31,06,39,1.00
2013,03,31,06,40,1.00
2013,03,31,06,41,1.00
2013,03,31,06,42,1.00
2013,03,31,06,43,1.00
2013,03,31,06,44,1.00
2013,03,31,06,45,0.90
2013,03,31,06,46,0.90
2013,03,31,06,47,0.90
2013,03,31,06,48,0.90
2013,03,31,06,49,0.90
2013,03,31,06,50,0.90
2013,03,31,06,51,0.90
2013,03,31,06,52,0.90
2013,03,31,06,53,0.90
2013,03,31,06,54,0.90
2013,03,31,06,55,0.90
2013,03,31,06,56,0.90
2013,03,31,06,57,0.90
2013,03,31,06,58,0.90
2013,03,31,06,59,0.80
2013,03,31,07,00,0.80
2013,03,31,07,01,0.80
2013,03,31,07,02,0.80
2013,03,31,07,03,0.80
2013,03,31,07,04,0.80
2013,03,31,07,05,0.80
2013,03,31,07,06,0.80
2013,03,31,07,07,0.80
2013,03,31,07,08,0.80
2013,03,31,07,09,0.80
2013,03,31,07,10,0.80
2013,03,31,07,11,0.80
2013,03,31,07,12,0.80
2013,03,31,07,13,0.80
2013,03,31,07,14,0.80
2013,03,31,07,15,0.80
2013,03,31,07,16,0.80
2013,03,31,07,17,0.80
2013,03,31,07,18,0.80
2013,03,31,07,19,0.80
2013,03,31,07,20,0.70
2013,03,31,07,21,0.70
2013,03,31,07,22,0.70
2013,03,31,07,23,0.70
2013,03,31,07,24,0.70
2013,03,31,07,25,0.70
2013,03,31,07,26,0.70
2013,03,31,07,27,0.70
2013,03,31,07,28,0.70
2013,03,31,07,29,0.70
2013,03,31,07,30,0.70
2013,03,31,07,31,0.70
2013,03,31,07,32,0.70
2013,03,31,07,33,0.70
2013,03,31,07,34,0.70
2013,03,31,07,35,0.70
2013,03,31,07,36,0.70
2013,03,31,07,37,0.70
2013,03,31,07,38,0.70
2013,03,31,07,39,0.70
2013,03,31,07,40,0.70
2013,03,31,07,41,0.70
2013,03,31,07,42,0.70
2013,03,31,07,43,0.70
2013,03,31,07,44,0.70
2013,03,31,07,45,0.70
2013,03,31,07,46,0.70
2013,03,31,07,47,0.70
2013,03,31,07,48,0.70
2013,03,31,07,49,0.70
2013,03,31,07,50,0.70
2013,03,31,07,51,0.70
2013,03,31,07,52,0.70
2013,03,31,07,53,0.70
2013,03,31,07,54,0.70
2013,03,31,07,55,0.70
2013,03,31,07,56,0.70
2013,03,31,07,57,0.70
2013,03,31,07,58,0.70
2013,03,31,07,59,0.70
2013,03,31,08,00,0.70
2013,03,31,08,01,0.70
2013,03,31,08,02,0.70
2013,03,31,08,03,0.70
2013,03,31,08,04,0.70
2013,03,31,08,05,0.70
2013,03,31,08,06,0.70
2013,03,31,08,07,0.70
2013,03,31,08,08,0.70
2013,03,31,08,09,0.70
2013,03,31,08,10,0.70
2013,03,31,08,11,0.70
2013,03,31,08,12,0.80
2013,03,31,08,13,0.80
2013,03,31,08,14,0.80
2013,03,31,08,15,0.80
2013,03,31,08,16,0.80
2013,03,31,08,17,0.80
2013,03,31,08,18,0.80
2013,03,31,08,19,0.80
2013,03,31,08,20,0.80
2013,03,31,08,21,0.80
2013,03,31,08,22,0.80
2013,03,31,08,23,0.80
2013,03,31,08,24,0.80
2013,03,31,08,25,0.90
2013,03,31,08,26,1.00
2013,03,31,08,27,1.00
2013,03,31,08,28,1.10
2013,03,31,08,29,1.20
2013,03,31,08,30,1.30
2013,03,31,08,31,1.40
2013,03,31,08,32,1.50
2013,03,31,08,33,1.60
2013,03,31,08,34,1.60
2013,03,31,08,35,1.70
2013,03,31,08,36,1.80
2013,03,31,08,37,1.90
2013,03,31,08,38,2.00
2013,03,31,08,39,2.10
2013,03,31,08,40,2.30
2013,03,31,08,41,2.40
2013,03,31,08,42,2.50
2013,03,31,08,43,2.60
2013,03,31,08,44,2.70
2013,03,31,08,45,2.80
2013,03,31,08,46,2.90
2013,03,31,08,47,3.00
2013,03,31,08,48,3.10
2013,03,31,08,49,3.20
2013,03,31,08,50,3.30
2013,03,31,08,51,3.40
2013,03,31,08,52,3.40
2013,03,31,08,53,3.50
2013,03,31,08,54,3.60
2013,03,31,08,55,3.60
2013,03,31,08,56,3.70
2013,03,31,08,57,3.70
2013,03,31,08,58,3.80
2013,03,31,08,59,3.80
2013,03,31,09,00,3.90
2013,03,31,09,01,4.00
2013,03,31,09,02,4.00
2013,03,31,09,03,4.10
2013,03,31,09,04,4.10
2013,03,31,09,05,4.20
2013,03,31,09,06,4.30
2013,03,31,09,07,4.30
2013,03,31,09,08,4.40
2013,03,31,09,09,4.50
2013,03,31,09,10,4.50
2013,03,31,09,11,4.60
2013,03,31,09,12,4.70
2013,03,31,09,13,4.70
2013,03,31,09,14,4.80
2013,03,31,09,15,4.80
2013,03,31,09,16,4.90
2013,03,31,09,17,4.90
2013,03,31,09,18,5.00
2013,03,31,09,19,5.00
2013,03,31,09,20,5.10
2013,03,31,09,21,5.10
2013,03,31,09,22,5.20
2013,03,31,09,23,5.20
2013,03,31,09,24,5.20
2013,03,31,09,25,5.30
2013,03,31,09,26,5.30
2013,03,31,09,27,5.40
2013,03,31,09,28,5.50
2013,03,31,09,29,5.50
2013,03,31,09,30,5.60
2013,03,31,09,31,5.70
2013,03,31,09,32,5.80
2013,03,31,09,33,5.90
2013,03,31,09,34,6.00
2013,03,31,09,35,6.10
2013,03,31,09,36,6.20
2013,03,31,09,37,6.20
2013,03,31,09,38,6.30
2013,03,31,09,39,6.40
2013,03,31,09,40,6.40
2013,03,31,09,41,6.50
2013,03,31,09,42,6.60
2013,03,31,09,43,6.60
2013,03,31,09,44,6.70
2013,03,31,09,45,6.80
2013,03,31,09,46,6.80
2013,03,31,09,47,6.90
2013,03,31,09,48,7.00
2013,03,31,09,49,7.10
2013,03,31,09,50,7.20
2013,03,31,09,51,7.30
2013,03,31,09,52,7.30
2013,03,31,09,53,7.40
2013,03,31,09,54,7.40
2013,03,31,09,55,7.40
2013,03,31,09,56,7.50
2013,03,31,09,57,7.60
2013,03,31,09,58,7.60
2013,03,31,09,59,7.60
2013,03,31,10,00,7.70
2013,03,31,10,01,7.70
2013,03,31,10,02,7.70
2013,03,31,10,03,7.70
2013,03,31,10,04,7.70
2013,03,31,10,05,7.80
2013,03,31,10,06,7.80
2013,03,31,10,07,7.80
2013,03,31,10,08,7.80
2013,03,31,10,09,7.80
2013,03,31,10,10,7.90
2013,03,31,10,11,7.90
2013,03,31,10,12,8.00
2013,03,31,10,13,8.00
2013,03,31,10,14,8.10
2013,03,31,10,15,8.10
2013,03,31,10,16,8.20
2013,03,31,10,17,8.20
2013,03,31,10,18,8.20
2013,03,31,10,19,8.30
2013,03,31,10,20,8.30
2013,03,31,10,21,8.40
2013,03,31,10,22,8.50
2013,03,31,10,23,8.50
2013,03,31,10,24,8.60
2013,03,31,10,25,8.70
2013,03,31,10,26,8.80
2013,03,31,10,27,8.80
2013,03,31,10,28,8.90
2013,03,31,10,29,9.00
2013,03,31,10,30,9.00
2013,03,31,10,31,9.10
2013,03,31,10,32,9.10
2013,03,31,10,33,9.20
2013,03,31,10,34,9.20
2013,03,31,10,35,9.30
2013,03,31,10,36,9.30
2013,03,31,10,37,9.40
2013,03,31,10,38,9.50
2013,03,31,10,39,9.60
2013,03,31,10,40,9.70
2013,03,31,10,41,9.70
2013,03,31,10,42,9.80
2013,03,31,10,43,9.90
2013,03,31,10,44,10.00
2013,03,31,10,45,10.00
2013,03,31,10,46,10.10
2013,03,31,10,47,10.10
2013,03,31,10,48,10.10
2013,03,31,10,49,10.20
2013,03,31,10,50,10.20
2013,03,31,10,51,10.30
2013,03,31,10,52,10.30
2013,03,31,10,53,10.40
2013,03,31,10,54,10.40
2013,03,31,10,55,10.40
2013,03,31,10,56,10.50
2013,03,31,10,57,10.60
2013,03,31,10,58,10.60
2013,03,31,10,59,10.60
2013,03,31,11,00,10.70
2013,03,31,11,01,10.70
2013,03,31,11,02,10.70
2013,03,31,11,03,10.70
2013,03,31,11,04,10.70
2013,03,31,11,05,10.80
2013,03,31,11,06,10.80
2013,03,31,11,07,10.80
2013,03,31,11,08,10.80
2013,03,31,11,09,10.90
2013,03,31,11,10,11.00
2013,03,31,11,11,11.00
2013,03,31,11,12,11.10
2013,03,31,11,13,11.20
2013,03,31,11,14,11.30
2013,03,31,11,15,11.40
2013,03,31,11,16,11.40
2013,03,31,11,17,11.50
2013,03,31,11,18,11.50
2013,03,31,11,19,11.60
2013,03,31,11,20,11.60
2013,03,31,11,21,11.70
2013,03,31,11,22,11.70
2013,03,31,11,23,11.80
2013,03,31,11,24,11.90
2013,03,31,11,25,12.00
2013,03,31,11,26,12.10
2013,03,31,11,27,12.20
2013,03,31,11,28,12.30
2013,03,31,11,29,12.40
2013,03,31,11,30,12.40
2013,03,31,11,31,12.50
2013,03,31,11,32,12.60
2013,03,31,11,33,12.60
2013,03,31,11,34,12.70
2013,03,31,11,35,12.80
2013,03,31,11,36,12.80
2013,03,31,11,37,12.80
2013,03,31,11,38,12.90
2013,03,31,11,39,13.00
2013,03,31,11,40,13.00
2013,03,31,11,41,13.10
2013,03,31,11,42,13.10
2013,03,31,11,43,13.10
2013,03,31,11,44,13.10
2013,03,31,11,45,13.10
2013,03,31,11,46,13.10
2013,03,31,11,47,13.10
2013,03,31,11,48,13.10
2013,03,31,11,49,13.10
2013,03,31,11,50,13.10
2013,03,31,11,51,13.20
2013,03,31,11,52,13.20
2013,03,31,11,53,13.30
2013,03,31,11,54,13.30
2013,03,31,11,55,13.40
2013,03,31,11,56,13.50
2013,03,31,11,57,13.50
2013,03,31,11,58,13.60
2013,03,31,11,59,13.70
2013,03,31,12,00,13.80
2013,03,31,12,01,13.80
2013,03,31,12,02,13.90
2013,03,31,12,03,14.00
2013,03,31,12,04,14.10
2013,03,31,12,05,14.20
2013,03,31,12,06,14.30
2013,03,31,12,07,14.30
2013,03,31,12,08,14.30
2013,03,31,12,09,14.30
2013,03,31,12,10,14.30
2013,03,31,12,11,14.20
2013,03,31,12,12,14.20
2013,03,31,12,13,14.20
2013,03,31,12,14,14.30
2013,03,31,12,15,14.40
2013,03,31,12,16,14.50
2013,03,31,12,17,14.60
2013,03,31,12,18,14.70
2013,03,31,12,19,14.80
2013,03,31,12,20,14.80
2013,03,31,12,21,14.80
2013,03,31,12,22,14.80
2013,03,31,12,23,14.80
2013,03,31,12,24,14.80
2013,03,31,12,25,14.80
2013,03,31,12,26,14.80
2013,03,31,12,27,14.80
2013,03,31,12,28,14.80
2013,03,31,12,29,14.70
2013,03,31,12,30,14.80
2013,03,31,12,31,14.80
2013,03,31,12,32,14.90
2013,03,31,12,33,15.00
2013,03,31,12,34,15.10
2013,03,31,12,35,15.20
2013,03,31,12,36,15.20
2013,03,31,12,37,15.30
2013,03,31,12,38,15.40
2013,03,31,12,39,15.40
2013,03,31,12,40,15.50
2013,03,31,12,41,15.60
2013,03,31,12,42,15.70
2013,03,31,12,43,15.90
2013,03,31,12,44,16.00
2013,03,31,12,45,16.20
2013,03,31,12,46,16.30
2013,03,31,12,47,16.40
2013,03,31,12,48,16.50
2013,03,31,12,49,16.60
2013,03,31,12,50,16.60
2013,03,31,12,51,16.60
2013,03,31,12,52,16.70
2013,03,31,12,53,16.70
2013,03,31,12,54,16.70
2013,03,31,12,55,16.70
2013,03,31,12,56,16.70
2013,03,31,12,57,16.80
2013,03,31,12,58,16.80
2013,03,31,12,59,16.90
2013,03,31,13,00,17.00
2013,03,31,13,01,17.00
2013,03,31,13,02,17.00
2013,03,31,13,03,17.00
2013,03,31,13,04,17.00
2013,03,31,13,05,17.10
2013,03,31,13,06,17.10
2013,03,31,13,07,17.20
2013,03,31,13,08,17.30
2013,03,31,13,09,17.40
2013,03,31,13,10,17.40
2013,03,31,13,11,17.50
2013,03,31,13,12,17.50
2013,03,31,13,13,17.60
2013,03,31,13,14,17.60
2013,03,31,13,15,17.70
2013,03,31,13,16,17.70
2013,03,31,13,17,17.70
2013,03,31,13,18,17.80
2013,03,31,13,19,17.80
2013,03,31,13,20,17.90
2013,03,31,13,21,17.90
2013,03,31,13,22,17.90
2013,03,31,13,23,18.00
2013,03,31,13,24,18.00
2013,03,31,13,25,18.00
2013,03,31,13,26,18.00
2013,03,31,13,27,18.10
2013,03,31,13,28,18.10
2013,03,31,13,29,18.10
2013,03,31,13,30,18.20
2013,03,31,13,31,18.20
2013,03,31,13,32,18.30
2013,03,31,13,33,18.30
2013,03,31,13,34,18.40
2013,03,31,13,35,18.40
2013,03,31,13,36,18.40
2013,03,31,13,37,18.40
2013,03,31,13,38,18.40
2013,03,31,13,39,18.40
2013,03,31,13,40,18.60
2013,03,31,13,41,18.70
2013,03,31,13,42,18.80
2013,03,31,13,43,18.90
2013,03,31,13,44,18.90
2013,03,31,13,45,19.00
2013,03,31,13,46,19.00
2013,03,31,13,47,18.90
2013,03,31,13,48,19.00
2013,03,31,13,49,19.00
2013,03,31,13,50,19.00
2013,03,31,13,51,19.00
2013,03,31,13,52,19.10
2013,03,31,13,53,19.10
2013,03,31,13,54,19.10
2013,03,31,13,55,19.20
2013,03,31,13,56,19.30
2013,03,31,13,57,19.40
2013,03,31,13,58,19.60
2013,03,31,13,59,19.80
2013,03,31,14,00,19.90
2013,03,31,14,01,20.00
2013,03,31,14,02,20.10
2013,03,31,14,03,20.10
2013,03,31,14,04,20.00
2013,03,31,14,05,20.00
2013,03,31,14,06,19.90
2013,03,31,14,07,19.90
2013,03,31,14,08,19.80
2013,03,31,14,09,19.80
2013,03,31,14,10,19.80
2013,03,31,14,11,19.90
2013,03,31,14,12,20.00
2013,03,31,14,13,20.10
2013,03,31,14,14,20.20
2013,03,31,14,15,20.30
2013,03,31,14,16,20.40
2013,03,31,14,17,20.40
2013,03,31,14,18,20.50
2013,03,31,14,19,20.50
2013,03,31,14,20,20.50
2013,03,31,14,21,20.50
2013,03,31,14,22,20.50
2013,03,31,14,23,20.50
2013,03,31,14,24,20.60
2013,03,31,14,25,20.60
2013,03,31,14,26,20.70
2013,03,31,14,27,20.80
2013,03,31,14,28,20.90
2013,03,31,14,29,20.90
2013,03,31,14,30,21.00
2013,03,31,14,31,21.10
2013,03,31,14,32,21.10
2013,03,31,14,33,21.20
2013,03,31,14,34,21.20
2013,03,31,14,35,21.20
2013,03,31,14,36,21.20
2013,03,31,14,37,21.40
2013,03,31,14,38,21.50
2013,03,31,14,39,21.60
2013,03,31,14,40,21.70
2013,03,31,14,41,21.70
2013,03,31,14,42,21.70
2013,03,31,14,43,21.80
2013,03,31,14,44,21.80
2013,03,31,14,45,21.90
2013,03,31,14,46,21.90
2013,03,31,14,47,22.00
2013,03,31,14,48,22.00
2013,03,31,14,49,22.00
2013,03,31,14,50,22.00
2013,03,31,14,51,22.00
2013,03,31,14,52,21.90
2013,03,31,14,53,21.90
2013,03,31,14,54,21.80
2013,03,31,14,55,21.80
2013,03,31,14,56,21.80
2013,03,31,14,57,21.80
2013,03,31,14,58,21.80
2013,03,31,14,59,21.80
2013,03,31,15,00,21.80
2013,03,31,15,01,21.80
2013,03,31,15,02,21.80
2013,03,31,15,03,21.80
2013,03,31,15,04,21.80
2013,03,31,15,05,21.80
2013,03,31,15,06,21.80
2013,03,31,15,07,21.80
2013,03,31,15,08,21.90
2013,03,31,15,09,22.00
2013,03,31,15,10,22.10
2013,03,31,15,11,22.20
2013,03,31,15,12,22.30
2013,03,31,15,13,22.30
2013,03,31,15,14,22.40
2013,03,31,15,15,22.40
2013,03,31,15,16,22.40
2013,03,31,15,17,22.40
2013,03,31,15,18,22.50
2013,03,31,15,19,22.60
2013,03,31,15,20,22.70
2013,03,31,15,21,22.80
2013,03,31,15,22,23.00
2013,03,31,15,23,23.10
2013,03,31,15,24,23.20
2013,03,31,15,25,23.20
2013,03,31,15,26,23.20
2013,03,31,15,27,23.20
2013,03,31,15,28,23.10
2013,03,31,15,29,23.00
2013,03,31,15,30,22.90
2013,03,31,15,31,22.80
2013,03,31,15,32,22.70
2013,03,31,15,33,22.50
2013,03,31,15,34,22.40
2013,03,31,15,35,22.40
2013,03,31,15,36,22.30
2013,03,31,15,37,22.30
2013,03,31,15,38,22.20
2013,03,31,15,39,22.20
2013,03,31,15,40,22.10
2013,03,31,15,41,22.10
2013,03,31,15,42,22.00
2013,03,31,15,43,21.90
2013,03,31,15,44,21.90
2013,03,31,15,45,21.90
2013,03,31,15,46,21.90
2013,03,31,15,47,21.90
2013,03,31,15,48,21.80
2013,03,31,15,49,21.80
2013,03,31,15,50,21.80
2013,03,31,15,51,21.90
2013,03,31,15,52,21.90
2013,03,31,15,53,21.90
2013,03,31,15,54,22.00
2013,03,31,15,55,22.10
2013,03,31,15,56,22.10
2013,03,31,15,57,22.10
2013,03,31,15,58,22.10
2013,03,31,15,59,22.10
2013,03,31,16,00,22.10
2013,03,31,16,01,22.00
2013,03,31,16,02,22.00
2013,03,31,16,03,22.00
2013,03,31,16,04,21.90
2013,03,31,16,05,21.90
2013,03,31,16,06,21.80
2013,03,31,16,07,21.80
2013,03,31,16,08,21.80
2013,03,31,16,09,21.80
2013,03,31,16,10,21.80
2013,03,31,16,11,21.80
2013,03,31,16,12,21.80
2013,03,31,16,13,21.70
2013,03,31,16,14,21.70
2013,03,31,16,15,21.70
2013,03,31,16,16,21.70
2013,03,31,16,17,21.70
2013,03,31,16,18,21.70
2013,03,31,16,19,21.70
2013,03,31,16,20,21.70
2013,03,31,16,21,21.80
2013,03,31,16,22,21.80
2013,03,31,16,23,21.80
2013,03,31,16,24,21.80
2013,03,31,16,25,21.80
2013,03,31,16,26,21.80
2013,03,31,16,27,21.80
2013,03,31,16,28,21.80
2013,03,31,16,29,21.70
2013,03,31,16,30,21.70
2013,03,31,16,31,21.70
2013,03,31,16,32,21.70
2013,03,31,16,33,21.70
2013,03,31,16,34,21.70
2013,03,31,16,35,21.70
2013,03,31,16,36,21.70
2013,03,31,16,37,21.70
2013,03,31,16,38,21.70
2013,03,31,16,39,21.70
2013,03,31,16,40,21.70
2013,03,31,16,41,21.70
2013,03,31,16,42,21.70
2013,03,31,16,43,21.60
2013,03,31,16,44,21.60
2013,03,31,16,45,21.60
2013,03,31,16,46,21.60
2013,03,31,16,47,21.60
2013,03,31,16,48,21.60
2013,03,31,16,49,21.60
2013,03,31,16,50,21.60
2013,03,31,16,51,21.60
2013,03,31,16,52,21.60
2013,03,31,16,53,21.60
2013,03,31,16,54,21.50
2013,03,31,16,55,21.50
2013,03,31,16,56,21.40
2013,03,31,16,57,21.40
2013,03,31,16,58,21.40
2013,03,31,16,59,21.40
2013,03,31,17,00,21.40
2013,03,31,17,01,21.40
2013,03,31,17,02,21.40
2013,03,31,17,03,21.30
2013,03,31,17,04,21.30
2013,03,31,17,05,21.30
2013,03,31,17,06,21.30
2013,03,31,17,07,21.20
2013,03,31,17,08,21.20
2013,03,31,17,09,21.20
2013,03,31,17,10,21.20
2013,03,31,17,11,21.10
2013,03,31,17,12,21.10
2013,03,31,17,13,21.10
2013,03,31,17,14,21.00
2013,03,31,17,15,21.00
2013,03,31,17,16,21.00
2013,03,31,17,17,20.90
2013,03,31,17,18,20.90
2013,03,31,17,19,20.90
2013,03,31,17,20,20.90
2013,03,31,17,21,20.90
2013,03,31,17,22,20.80
2013,03,31,17,23,20.80
2013,03,31,17,24,20.80
2013,03,31,17,25,20.80
2013,03,31,17,26,20.80
2013,03,31,17,27,20.80
2013,03,31,17,28,20.80
2013,03,31,17,29,20.70
2013,03,31,17,30,20.70
2013,03,31,17,31,20.60
2013,03,31,17,32,20.60
2013,03,31,17,33,20.60
2013,03,31,17,34,20.60
2013,03,31,17,35,20.60
2013,03,31,17,36,20.60
2013,03,31,17,37,20.70
2013,03,31,17,38,20.70
2013,03,31,17,39,20.70
2013,03,31,17,40,20.70
2013,03,31,17,41,20.60
2013,03,31,17,42,20.60
2013,03,31,17,43,20.50
2013,03,31,17,44,20.50
2013,03,31,17,45,20.40
2013,03,31,17,46,20.40
2013,03,31,17,47,20.40